Location: Lac Lasalle
(46.0398°N, 74.1576°W)
Time: 00:13:08
(UTC-04:00)

ISS - Pass Details

Date: 21 March 2019
Orbit: 408 x 410 km, 51.6° (Epoch: 23 April)

Event Time Altitude Azimuth Distance (km) Brightness Sun altitude
Rises 21:32:48 0° 242° (WSW) 2,326 0.5 -24.5°
Reaches altitude 10° 21:34:52 10° 243° (WSW) 1,468 -0.6 -24.8°
Enters shadow 21:35:45 17° 243° (WSW) 1,111 -1.3 -24.9°
